Location: Rye
(30.7294°N, 96.4902°W)
Time: 11:42:54
(UTC+00:00)

Tiros 1 despin weight - Visible Passes

Search period start: 05 December 2025 00:00
Search period end: 15 December 2025 00:00
Orbit: 559 x 596 km, 48.2° (Epoch: 04 December)

Date Brightness Start Highest point End Pass type
(mag) Time Alt. Az. Time Alt. Az. Time Alt. Az.
05 Dec ? 00:23:24 10° SSE 00:25:09 12° SE 00:26:04 12° ESE visible
05 Dec ? 02:01:04 10° SW 02:02:19 19° SW 02:02:19 19° SW visible
06 Dec ? 00:24:53 10° S 00:28:12 22° SE 00:29:41 18° ESE visible
06 Dec ? 02:04:30 10° WSW 02:05:55 19° WSW 02:05:55 19° WSW visible
07 Dec ? 00:27:17 10° SSW 00:31:16 38° SE 00:33:13 24° E visible
07 Dec ? 02:08:12 10° W 02:09:26 17° W 02:09:26 17° W visible
08 Dec ? 00:30:07 10° SW 00:34:24 69° SE 00:36:39 26° ENE visible
08 Dec ? 02:12:10 10° WNW 02:12:53 13° WNW 02:12:53 13° WNW visible
09 Dec ? 00:33:17 10° WSW 00:37:34 68° NW 00:40:02 24° NE visible
10 Dec ? 00:36:43 10° WSW 00:40:47 41° NW 00:43:19 20° NNE visible
11 Dec ? 00:40:24 10° W 00:44:04 27° NNW 00:46:31 16° NNE visible
12 Dec ? 00:44:21 10° WNW 00:47:25 19° NNW 00:49:40 13° N visible
13 Dec ? 00:48:35 10° NW 00:50:50 14° NNW 00:52:45 11° N visible
14 Dec ? 00:53:23 10° NNW 00:54:17 11° NNW 00:55:13 10° N visible
